Regional Weather Roundup
Issued by NWS

Home | Current Version | Previous Version | Graphics & Text | Print | Product List | Glossary On
Versions: 1 2 3 4 5 6 7 8 9 10 11 12 13 14 15 16 17 18 19 20 21 22 23 24 25 26 27 28 29 30 31 32 33 34 35 36 37 38 39 40 41 42 43 44 45 46 47 48 49 50
000
ASUS43 KOAX 020510
RWRNE

WEATHER ROUNDUP FOR NEBRASKA
NATIONAL WEATHER SERVICE OMAHA NE
1100 PM CST SUN MAR 01 2015

NOTES: SATELLITE DATA IS BEING USED TO AUGMENT CLOUD COVER ABOVE
       12000 FEET.
       "FAIR" INDICATES FEW OR NO CLOUDS BELOW 12,000 FEET WITH NO
       SIGNIFICANT WEATHER AND/OR OBSTRUCTIONS TO VISIBILITY.

  * THESE STATIONS DO NOT REPORT WEATHER SUCH AS RAIN...SNOW OR FOG.

NEZ001>004-019>022-054>056-020600-
NEBRASKA PANHANDLE

CITY           SKY/WX    TMP DP  RH WIND       PRES   REMARKS
SCOTTSBLUFF    CLOUDY    25  12  58 E7        30.27F WCI  17
ALLIANCE       MOCLDY    20  14  77 SE5       30.28R WCI  13
CHADRON        PTCLDY    19  11  70 E5        30.30S WCI  12
KIMBALL        CLOUDY    23  19  85 S3        30.22F
SIDNEY         PTCLDY    24  18  77 SW7       30.29R WCI  16
$$

NEZ057>060-069>072-079>082-020600-
SOUTHWEST NEBRASKA

CITY           SKY/WX    TMP DP  RH WIND       PRES   REMARKS
NORTH PLATTE   PTCLDY    19  11  70 SE6       30.37S WCI  11
IMPERIAL         N/A     24  14  65 CALM      30.35R
LEXINGTON      PTCLDY    23  11  60 E3        30.40R
MCCOOK         CLOUDY    31  14  49 S3        30.38R
OGALLALA       MOCLDY    20  15  81 CALM      30.33S
$$

NEZ005>010-023>029-035>040-094-020600-
NORTH CENTRAL NEBRASKA

CITY           SKY/WX    TMP DP  RH WIND       PRES   REMARKS
VALENTINE      MOCLDY    15   8  73 SW5       30.38R WCI   8
AINSWORTH      MOCLDY    18   9  68 CALM      30.38S
BROKEN BOW     PTCLDY    18   8  65 CALM      30.39R
O`NEILL        MOCLDY    20   9  63 CALM      30.42R
ORD            PTCLDY    15   5  64 CALM      30.41R
THEDFORD       PTCLDY    19   8  64 CALM      30.37S
$$

NEZ041-046>049-061>064-073>077-083>087-020600-
SOUTH CENTRAL NEBRASKA

CITY           SKY/WX    TMP DP  RH WIND       PRES   REMARKS
GRAND ISLAND   PTCLDY    26  11  52 NE3       30.44R
AURORA         PTCLDY    25  12  57 NE6       30.44R WCI  18
HASTINGS       CLOUDY    25  13  60 NE3       30.41S
HEBRON         CLOUDY    27  19  73 CALM      30.46R
HOLDREGE       MOCLDY    26   9  48 CALM      30.41R
KEARNEY *      MOCLDY    25  10  54 NE6       30.42S WCI  18
YORK           PTCLDY    25  14  63 NE3       30.45R
$$

NEZ011>018-030>034-042>045-020600-
NORTHEAST NEBRASKA

CITY           SKY/WX    TMP DP  RH WIND       PRES   REMARKS
NORFOLK        PTCLDY    25   9  50 CALM      30.44R
ALBION         PTCLDY    15   6  68 CALM      30.44R
BLAIR          CLEAR     29  13  50 N7        30.45R WCI  22
COLUMBUS *     PTCLDY    21   7  53 CALM      30.47R
FREMONT        CLEAR     25  13  58 CALM      30.47R
TEKAMAH        CLEAR     23  14  68 N8        30.48R WCI  14
WAYNE          PTCLDY    14   7  75 SW5       30.46R WCI   6
$$

NEZ050>053-065>068-078-088>093-020600-
SOUTHEAST NEBRASKA

CITY           SKY/WX    TMP DP  RH WIND       PRES   REMARKS
LINCOLN        PTCLDY    23  16  74 N8        30.47R WCI  14
OMAHA EPPLEY   PTCLDY    23  17  78 N5        30.48R WCI  17
BEATRICE       MOCLDY    25  18  75 CALM      30.46R
FALLS CITY     CLOUDY    27  20  75 CALM      30.47R
NEBRASKA CITY  MOCLDY    28  13  53 W7        30.46R WCI  20
PLATTSMOUTH    PTCLDY    28  13  54 CALM      30.46R
$$

NEZ044-045-051>053-067-020600-
OMAHA AREA

CITY           SKY/WX    TMP DP  RH WIND       PRES   REMARKS
OMAHA EPPLEY   PTCLDY    23  17  78 N5        30.48R WCI  17
BLAIR          CLEAR     29  13  50 N7        30.45R WCI  22
FREMONT        CLEAR     25  13  58 CALM      30.47R
MILLARD        CLEAR     24  16  71 CALM      30.48R
OFFUTT AFB     CLEAR     23  16  72 NW2       30.46R
PLATTSMOUTH    PTCLDY    28  13  54 CALM      30.46R
WAHOO          FAIR      21  11  65 N7        30.47R WCI  13
$$



USA.gov is the U.S. government's official web portal to all federal, state and local government web resources and services.